Location: Le Hiès Ruisseau
(43.3000°N, 0.4500°W)
Time: 02:28:11
(UTC+00:00)

Cosmos 614 Rocket - Pass Details

Date: 28 January 2023
Orbit: 733 x 762 km, 74.1° (Epoch: 27 March)

Event Time Altitude Azimuth Distance (km) Brightness Sun altitude
Rises 17:33:15 0° 199° (SSW) 3,210 7.8 -5.1°
Reaches altitude 10° 17:35:36 10° 199° (SSW) 2,288 7.1 -5.5°
Maximum altitude 17:40:49 88° 290° (WNW) 767 4.1 -6.4°
Drops below altitude 10° 17:46:02 10° 20° (NNE) 2,294 6.1 -7.3°
Sets 17:48:24 0° 21° (NNE) 3,219 6.9 -7.7°
